[[[{"header":{"parameterUnit":"kt","parameterCategory":2,"dx":1,"dy":1,"la1":30.253999710083008,"la2":30.299108505249023,"lo1":-89.0895004272461,"lo2":-89.04439544677734,"nx":28,"ny":28,"refTime":"2022-09-28T21:00:00:Z","depth":0,"parameterNumber":1,"parameterNumberName":"U-component_of_WINDS"},"data":[-0.7759,-0.7749,-0.773,-0.7709,-0.7688,-0.7669,-0.7656,-0.7637,-0.7617,-0.7591,-0.7573,-0.7551,-0.7522,-0.7494,-0.7472,-0.7462,-0.7454,-0.7464,-0.7451,-0.7424,-0.7418,-0.7413,-0.7415,-0.7463,-0.7463,-0.7482,-0.7482,-0.7483,-0.7738,-0.7717,-0.7701,-0.7672,-0.7657,-0.7635,-0.7609,-0.7598,-0.7582,-0.7557,-0.7538,-0.7514,-0.7492,-0.7458,-0.7433,-0.7426,-0.7414,-0.7421,-0.7421,-0.7416,-0.7386,-0.7388,-0.7431,-0.7431,-0.7431,-0.7431,-0.7431,-0.7431,-0.7694,-0.769,-0.7661,-0.7643,-0.7623,-0.7603,-0.7594,-0.7568,-0.7551,-0.7524,-0.7504,-0.7485,-0.7455,-0.7415,-0.7397,-0.738,-0.7369,-0.737,-0.737,-0.737,-0.7374,-0.7347,-0.7375,-0.7375,-0.7375,-0.7374,-0.7374,0,-0.7656,-0.764,-0.7624,-0.7601,-0.7587,-0.7567,-0.7546,-0.754,-0.7498,-0.7486,-0.7466,-0.7451,-0.7421,-0.7399,-0.7371,-0.7352,-0.7327,-0.7322,-0.7322,-0.7332,-0.7344,-0.7336,-0.7287,-0.7322,-0.7321,-0.7321,-0.732,-0.732,-0.761,-0.7607,-0.7568,-0.7558,-0.7542,-0.7528,-0.7515,-0.7479,-0.7467,-0.7435,-0.7432,-0.741,-0.7391,-0.7362,-0.733,-0.7307,-0.7295,-0.731,-0.7291,-0.73,-0.7294,-0.7294,-0.7293,-0.7314,-0.7315,-0.7316,-0.7316,0,-0.7585,-0.7554,-0.7543,-0.7504,-0.7494,-0.7493,-0.7459,-0.7452,-0.7428,-0.7415,-0.741,-0.7372,-0.7353,-0.7319,-0.729,-0.7273,-0.7267,-0.7256,-0.7276,-0.7272,-0.7281,-0.7281,-0.732,-0.7322,-0.7273,-0.7273,-0.7274,0,-0.7533,-0.7531,-0.7484,-0.7479,-0.7475,-0.7439,-0.7436,-0.7415,-0.739,-0.738,-0.7346,-0.7337,-0.7296,-0.7281,-0.7256,-0.7245,-0.724,-0.7226,-0.7219,-0.7229,-0.7231,-0.7221,-0.7219,-0.7206,-0.7205,-0.7205,-0.7205,0,-0.7497,-0.747,-0.7463,-0.7452,-0.7411,-0.7408,-0.739,-0.7362,-0.735,-0.7329,-0.7321,-0.7299,-0.7287,-0.7269,-0.7237,-0.7226,-0.7224,-0.7201,-0.7209,-0.721,-0.7211,-0.7211,-0.7254,-0.7205,-0.7205,-0.7205,-0.7205,0,-0.745,-0.7431,-0.7426,-0.7391,-0.7385,-0.738,-0.7357,-0.7345,-0.7318,-0.7302,-0.7285,-0.7259,-0.7248,-0.7228,-0.7212,-0.7206,-0.7195,-0.7181,-0.7181,-0.7178,-0.7156,-0.7184,-0.7229,-0.7232,-0.7174,-0.7174,-0.7174,0,-0.7418,-0.7405,-0.7374,-0.737,-0.736,-0.7323,-0.7317,-0.7295,-0.7273,-0.726,-0.7236,-0.7221,-0.7199,-0.719,-0.7186,-0.7161,-0.7168,-0.7159,-0.7138,-0.7138,-0.7146,-0.7187,-0.7202,-0.7223,-0.717,-0.717,-0.7171,0,-0.7389,-0.734,-0.7342,-0.7327,-0.7293,-0.7284,-0.7277,-0.7256,-0.7248,-0.7228,-0.722,-0.72,-0.7182,-0.7167,-0.7144,-0.7142,-0.7162,-0.7124,-0.7122,-0.7131,-0.7166,-0.718,-0.7184,-0.7147,-0.7147,-0.7147,-0.7168,0,-0.7323,-0.7313,-0.7316,-0.7287,-0.7275,-0.7271,-0.7237,-0.7229,-0.7208,-0.7186,-0.7175,-0.7149,-0.7126,-0.7122,-0.7102,-0.7109,-0.7103,-0.7084,-0.7062,-0.709,-0.7096,-0.7098,-0.7056,-0.7055,-0.7055,-0.7054,0,0,-0.7299,-0.7285,-0.7253,-0.7246,-0.7234,-0.7197,-0.7195,-0.7179,-0.7148,-0.714,-0.7128,-0.7096,-0.7075,-0.7066,-0.7072,-0.7063,-0.7061,-0.7053,-0.7077,-0.708,-0.7083,-0.7089,-0.7093,-0.7053,-0.7053,-0.7052,-0.7052,0,-0.7269,-0.725,-0.725,-0.7232,-0.7204,-0.7181,-0.7181,-0.7147,-0.7133,-0.7123,-0.7093,-0.7082,-0.7059,-0.704,-0.7028,-0.7053,-0.7031,-0.7049,-0.7074,-0.7071,-0.7075,-0.7078,-0.7086,-0.7089,-0.705,-0.7051,-0.7051,0,-0.7233,-0.7209,-0.7206,-0.7178,-0.716,-0.715,-0.7119,-0.7111,-0.7103,-0.7063,-0.7054,-0.7035,-0.7008,-0.7005,-0.7002,-0.699,-0.7005,-0.6995,-0.6999,-0.6998,-0.6993,-0.6998,-0.7002,-0.6949,-0.6949,-0.6949,0,0,-0.7211,-0.7203,-0.7165,-0.7169,-0.716,-0.7126,-0.7117,-0.7096,-0.7073,-0.7064,-0.704,-0.7018,-0.7004,-0.6995,-0.698,-0.6981,-0.6972,-0.6984,-0.6989,-0.6993,-0.6994,-0.6991,-0.6996,-0.6948,-0.6948,-0.6948,0,0,-0.7201,-0.7158,-0.7142,-0.7142,-0.7121,-0.7085,-0.7088,-0.7066,-0.705,-0.7046,-0.701,-0.7002,-0.6998,-0.6981,-0.6974,-0.6971,-0.695,-0.6951,-0.6983,-0.6988,-0.6993,-0.6997,-0.6939,0,0,0,0,0,-0.7152,-0.7163,-0.7149,-0.7144,-0.7109,-0.7093,-0.7088,-0.7058,-0.7044,-0.7047,-0.7022,-0.6999,-0.697,-0.6963,-0.6958,-0.6966,-0.6938,-0.6939,-0.6941,-0.6982,-0.6988,-0.6993,0,0,0,0,0,0,-0.715,-0.7144,-0.7148,-0.7113,-0.7105,-0.7092,-0.7061,-0.7053,-0.7043,-0.7038,-0.7005,-0.6998,-0.6972,-0.6963,-0.6959,-0.6968,-0.694,-0.6938,-0.694,-0.6941,-0.6984,-0.6989,-0.6993,0,0,0,0,0,-0.7148,-0.7143,-0.7096,-0.7113,-0.7106,-0.7068,-0.706,-0.7053,-0.7045,-0.7008,-0.7001,-0.7023,-0.6973,-0.6968,-0.6961,-0.697,-0.6942,-0.6941,-0.6939,-0.6941,-0.6942,-0.6987,0,0,0,0,0,0,-0.7147,-0.7137,-0.7094,-0.709,-0.7107,-0.7069,-0.7062,-0.7054,-0.7014,-0.7008,-0.7025,-0.7022,-0.6974,-0.697,-0.6966,-0.6973,-0.6944,-0.6943,-0.6942,-0.694,-0.6941,-0.6942,0,0,0,0,0,0,-0.7139,-0.7134,-0.7092,-0.7086,-0.7082,-0.7069,-0.7063,-0.7052,-0.7014,-0.7033,-0.703,-0.7024,-0.698,-0.6972,-0.6968,-0.6953,-0.6946,-0.6944,-0.6943,-0.6943,-0.6941,-0.6942,0,0,0,0,0,0,-0.7137,-0.7132,-0.7087,-0.7084,-0.708,-0.704,-0.7059,-0.7025,-0.701,-0.7036,-0.7008,-0.7007,-0.6982,-0.6978,-0.697,-0.6956,-0.6954,-0.6946,-0.6945,-0.6944,-0.6944,0,0,0,0,0,0,0,-0.7134,-0.717,-0.7113,-0.7081,-0.7078,-0.706,-0.7059,-0.7058,-0.701,-0.7009,-0.7008,-0.7007,-0.6953,-0.6951,-0.695,-0.6959,0,0,-0.6946,-0.6945,0,0,0,0,0,0,0,0,-0.7171,-0.717,-0.7113,-0.7113,-0.7112,-0.706,-0.7059,-0.7058,-0.701,-0.7009,-0.7008,-0.7008,-0.6952,-0.6951,-0.695,0,0,0,0,0,0,0,0,0,0,0,0,0,0,0,-0.7113,-0.7113,0,-0.706,-0.7059,-0.7058,-0.701,-0.7009,-0.7008,-0.7008,-0.6952,-0.6951,-0.695,0,0,0,0,0,0,0,0,0,0,0,0,0,0,0,0,0,0,0,0,0,0,0,0,0,0,0,0,0,0,0,0,0,0,0,0,0,0,0,0,0,0,0,0,0,0,0,0,0,0,0,0,0,0,0,0,0,0,0,0,0,0,0,0,0,0,0,0,0]}],[{"header":{"parameterUnit":"kt","parameterCategory":2,"dx":1,"dy":1,"la1":30.253999710083008,"la2":30.299108505249023,"lo1":-89.0895004272461,"lo2":-89.04439544677734,"nx":28,"ny":28,"refTime":"2022-09-28T21:00:00:Z","depth":0,"parameterNumber":2,"parameterNumberName":"V-component_of_WINDS"},"data":[-11.7867,-11.7979,-11.7997,-11.8131,-11.8169,-11.8263,-11.8301,-11.8351,-11.8394,-11.8505,-11.8571,-11.8595,-11.864,-11.8719,-11.8788,-11.8796,-11.8824,-11.8854,-11.8858,-11.8715,-11.8696,-11.8677,-11.8653,-11.8861,-11.8861,-11.9005,-11.9006,-11.9007,-11.7765,-11.7804,-11.7881,-11.7965,-11.803,-11.8012,-11.8076,-11.813,-11.8213,-11.8266,-11.8331,-11.8427,-11.8504,-11.8539,-11.8614,-11.8663,-11.8657,-11.8682,-11.8678,-11.8685,-11.8533,-11.8507,-11.8687,-11.8687,-11.8687,-11.8687,-11.8687,-11.8687,-11.7583,-11.765,-11.7711,-11.7793,-11.7839,-11.7894,-11.7959,-11.7988,-11.806,-11.8143,-11.8144,-11.8236,-11.8288,-11.8383,-11.8417,-11.8487,-11.8459,-11.849,-11.8498,-11.8505,-11.8513,-11.8305,-11.8499,-11.8499,-11.8498,-11.8498,-11.8498,0,-11.7455,-11.7465,-11.7537,-11.7616,-11.7676,-11.7737,-11.7794,-11.7834,-11.7853,-11.791,-11.7994,-11.8044,-11.8141,-11.8219,-11.829,-11.8318,-11.8299,-11.8298,-11.832,-11.8321,-11.8314,-11.8319,-11.807,-11.8291,-11.829,-11.8288,-11.8288,-11.8287,-11.7273,-11.7347,-11.7417,-11.7466,-11.7501,-11.7579,-11.7628,-11.7639,-11.7689,-11.7759,-11.7814,-11.7893,-11.7956,-11.8084,-11.811,-11.8181,-11.8172,-11.8255,-11.8181,-11.8181,-11.8173,-11.8168,-11.8176,-11.8269,-11.8271,-11.8273,-11.8274,0,-11.7169,-11.7193,-11.7313,-11.7372,-11.7389,-11.7466,-11.7515,-11.7579,-11.7598,-11.7688,-11.7709,-11.7738,-11.7817,-11.7831,-11.7922,-11.7926,-11.8049,-11.8038,-11.8032,-11.8031,-11.8107,-11.8099,-11.8351,-11.8385,-11.817,-11.8172,-11.8174,0,-11.7022,-11.7118,-11.7149,-11.7216,-11.7324,-11.7332,-11.7437,-11.7463,-11.7509,-11.758,-11.7563,-11.7629,-11.7635,-11.7703,-11.7709,-11.7811,-11.7828,-11.7837,-11.7837,-11.7838,-11.7837,-11.7862,-11.7851,-11.7834,-11.7833,-11.7831,-11.783,0,-11.6856,-11.6984,-11.7095,-11.7127,-11.7197,-11.7248,-11.7279,-11.7329,-11.7375,-11.7436,-11.7466,-11.7535,-11.7573,-11.7626,-11.7633,-11.7583,-11.7758,-11.769,-11.7767,-11.7767,-11.7803,-11.78,-11.8022,-11.7829,-11.7828,-11.7828,-11.7827,0,-11.674,-11.6806,-11.6963,-11.7021,-11.7053,-11.7124,-11.7196,-11.726,-11.7313,-11.7322,-11.737,-11.7358,-11.7448,-11.7381,-11.7505,-11.7438,-11.7475,-11.7492,-11.7497,-11.7505,-11.7428,-11.7551,-11.7761,-11.7783,-11.7514,-11.7511,-11.7509,0,-11.6545,-11.6708,-11.6716,-11.6863,-11.694,-11.6917,-11.6996,-11.7043,-11.7062,-11.7128,-11.7147,-11.722,-11.7172,-11.7196,-11.7256,-11.7277,-11.7365,-11.7266,-11.7357,-11.736,-11.7345,-11.7538,-11.7566,-11.7714,-11.7476,-11.7479,-11.7482,0,-11.6395,-11.648,-11.6506,-11.6543,-11.6609,-11.6671,-11.6761,-11.6837,-11.6881,-11.6934,-11.7009,-11.7111,-11.708,-11.7119,-11.7115,-11.7177,-11.7306,-11.7133,-11.7134,-11.7164,-11.7459,-11.7486,-11.7511,-11.7289,-11.7293,-11.7297,-11.7455,0,-11.6216,-11.6299,-11.6369,-11.6449,-11.6499,-11.6591,-11.6607,-11.6657,-11.6651,-11.6668,-11.6776,-11.6815,-11.6887,-11.6918,-11.6909,-11.7047,-11.7025,-11.6989,-11.6922,-11.7049,-11.7101,-11.7123,-11.6843,-11.6841,-11.6839,-11.6838,0,0,-11.6022,-11.6141,-11.6145,-11.6234,-11.6277,-11.625,-11.6346,-11.6383,-11.6459,-11.6488,-11.6452,-11.6601,-11.6632,-11.6762,-11.6802,-11.6831,-11.6856,-11.681,-11.6988,-11.7005,-11.702,-11.7076,-11.7099,-11.6835,-11.6834,-11.6834,-11.6833,0,-11.596,-11.5999,-11.6095,-11.6135,-11.6195,-11.6208,-11.6232,-11.6284,-11.6298,-11.6404,-11.6377,-11.6443,-11.6559,-11.6598,-11.6632,-11.6796,-11.6769,-11.6817,-11.6902,-11.6972,-11.699,-11.7007,-11.7066,-11.7087,-11.6829,-11.683,-11.683,0,-11.5815,-11.5856,-11.5904,-11.6001,-11.6038,-11.6115,-11.6051,-11.6135,-11.6192,-11.6152,-11.6257,-11.6279,-11.6329,-11.6449,-11.6503,-11.647,-11.669,-11.6621,-11.6632,-11.6637,-11.6705,-11.6728,-11.6748,-11.6482,-11.6481,-11.648,0,0,-11.5758,-11.5835,-11.5879,-11.5988,-11.6014,-11.6034,-11.6076,-11.6073,-11.6121,-11.614,-11.6168,-11.6213,-11.6281,-11.6326,-11.639,-11.6519,-11.6529,-11.6578,-11.6595,-11.6608,-11.6621,-11.6692,-11.6715,-11.6475,-11.6475,-11.6475,0,0,-11.573,-11.5787,-11.5772,-11.59,-11.5949,-11.5997,-11.6061,-11.6043,-11.6103,-11.6093,-11.6088,-11.61,-11.6212,-11.6233,-11.617,-11.6365,-11.6299,-11.6314,-11.6347,-11.6368,-11.6384,-11.6376,-11.6104,0,0,0,0,0,-11.5673,-11.578,-11.5767,-11.579,-11.5909,-11.6005,-11.602,-11.6021,-11.5975,-11.6027,-11.6047,-11.6015,-11.6198,-11.6142,-11.6163,-11.6234,-11.6415,-11.6425,-11.6435,-11.6508,-11.653,-11.6548,0,0,0,0,0,0,-11.5682,-11.5712,-11.5764,-11.5816,-11.5843,-11.6002,-11.5924,-11.5927,-11.597,-11.5963,-11.6013,-11.6017,-11.6016,-11.6131,-11.615,-11.6217,-11.6098,-11.6419,-11.6428,-11.6436,-11.6516,-11.6534,-11.6549,0,0,0,0,0,-11.569,-11.5713,-11.5904,-11.5815,-11.5838,-11.5865,-11.592,-11.5922,-11.5954,-11.5985,-11.5988,-11.5951,-11.6018,-11.6034,-11.6142,-11.6208,-11.6084,-11.6092,-11.6425,-11.6432,-11.6438,-11.6525,0,0,0,0,0,0,-11.5695,-11.5714,-11.5909,-11.5916,-11.5774,-11.5855,-11.5868,-11.5918,-11.5974,-11.5978,-11.5922,-11.5916,-11.6021,-11.6033,-11.6046,-11.6205,-11.6073,-11.6081,-11.6085,-11.643,-11.6436,-11.6441,0,0,0,0,0,0,-11.5702,-11.5721,-11.5912,-11.5861,-11.5862,-11.5847,-11.5859,-11.5949,-11.5974,-11.5908,-11.5904,-11.5919,-11.6,-11.6033,-11.6042,-11.6183,-11.6065,-11.6072,-11.6077,-11.608,-11.6435,-11.6439,0,0,0,0,0,0,-11.571,-11.5726,-11.5859,-11.586,-11.5861,-11.5939,-11.5926,-11.6046,-11.5935,-11.5905,-11.5924,-11.592,-11.6001,-11.6011,-11.604,-11.6177,-11.6181,-11.6065,-11.607,-11.6073,-11.6076,0,0,0,0,0,0,0,-11.5716,-11.5609,-11.5868,-11.586,-11.586,-11.598,-11.5982,-11.5984,-11.5934,-11.593,-11.5925,-11.5922,-11.6024,-11.6032,-11.604,-11.6172,0,0,-11.6064,-11.6068,0,0,0,0,0,0,0,0,-11.5602,-11.5607,-11.5868,-11.587,-11.5871,-11.598,-11.5982,-11.5983,-11.5933,-11.593,-11.5926,-11.5923,-11.6026,-11.6033,-11.6039,0,0,0,0,0,0,0,0,0,0,0,0,0,0,0,-11.5869,-11.587,0,-11.5981,-11.5982,-11.5983,-11.5933,-11.593,-11.5927,-11.5924,-11.6028,-11.6033,-11.6039,0,0,0,0,0,0,0,0,0,0,0,0,0,0,0,0,0,0,0,0,0,0,0,0,0,0,0,0,0,0,0,0,0,0,0,0,0,0,0,0,0,0,0,0,0,0,0,0,0,0,0,0,0,0,0,0,0,0,0,0,0,0,0,0,0,0,0,0,0]}]]]